Weather History for Omaha Millard, NE

Change the Weather History Date:

Wednesday, November 6, 2013

  Actual Average (KOMA) Record (KOMA)
Temperature  
Mean Temperature 35 °F 44 °F  
Max Temperature 41 °F 55 °F 80 °F (1980)
Min Temperature 29 °F 34 °F 7 °F (1991)
Degree Days  
Heating Degree Days 30 21  
Month to date heating degree days 118  
Since 1 July heating degree days 603  
Cooling Degree Days 0 0  
Month to date cooling degree days 0  
Year to date cooling degree days 1112  
Moisture  
Dew Point 31 °F    
Average Humidity 83    
Maximum Humidity 96    
Minimum Humidity 68    
Precipitation  
Precipitation 0.04 in 0.05 in 1.99 in (2000)
Month to date precipitation 0.37  
Year to date precipitation 28.31  
Snow  
Snow 0.00 in 0.00 in - ()
Month to date snowfall 0.2  
Since 1 July snowfall 0.5  
Snow Depth -    
Sea Level Pressure  
Sea Level Pressure 30.20 in    
Wind  
Wind Speed 8 mph (NW)    
Max Wind Speed 14 mph    
Max Gust Speed 23 mph    
Visibility 9 miles    
Events Rain , Snow    
T = Trace of Precipitation, MM = Missing Value Source: NWS Daily Summary

Daily Weather History Graph

Daily Weather History Graph

Search for Another Location

Airport:

Trip Planner

Search our weather history database for the weather conditions in past years. The results will help you decide how hot, cold, wet, or windy it might be!

Date:

Astronomy

Nov. 06, 2013 Rise Set
Actual Time 7:01 AM CST 5:13 PM CST
Civil Twilight 6:32 AM CST 5:42 PM CST
Nautical Twilight 6:00 AM CST 6:15 PM CST
Astronomical Twilight 5:27 AM CST 6:47 PM CST
Moon 10:18 AM CST (11/6) 8:18 PM CST (11/6)
Length of Visible Light 11h 09m
Length of Day
10h 11m
Waxing Crescent, 14% of the Moon is Illuminated
Nov 6
Waxing Crescent
Nov 9
First Quarter
Nov 17
Full
Nov 25
Last Quarter
Dec 2
New

Hourly Weather History & Observations

Time (CST) Temp. Windchill Dew Point Humidity Pressure Visibility Wind Dir Wind Speed Gust Speed Precip Events Conditions
12:35 AM 35.1 °F 25.9 °F 32.4 °F 90% 30.06 in 4.0 mi NW 13.8 mph 23.0 mph N/A   Overcast
12:55 AM 34.7 °F 25.9 °F 32.0 °F 90% 30.06 in 5.0 mi NNW 12.7 mph 21.9 mph N/A   Drizzle
1:15 AM 34.0 °F 25.5 °F 32.0 °F 92% 30.06 in 3.0 mi NW 11.5 mph 20.7 mph N/A Rain Light Rain
1:35 AM 34.0 °F 27.2 °F 32.0 °F 92% 30.06 in 5.0 mi NNW 8.1 mph 18.4 mph N/A Snow Light Snow
1:55 AM 34.0 °F 25.0 °F 32.0 °F 92% 30.07 in 10.0 mi NNW 12.7 mph 20.7 mph N/A Rain Light Rain
2:15 AM 34.2 °F 24.8 °F 32.0 °F 92% 30.08 in 10.0 mi NNW 13.8 mph 18.4 mph N/A   Overcast
2:35 AM 34.3 °F 27.0 °F 31.6 °F 90% 30.08 in 10.0 mi NNW 9.2 mph 19.6 mph N/A   Overcast
2:55 AM 34.3 °F 25.9 °F 31.8 °F 90% 30.09 in 10.0 mi NW 11.5 mph 16.1 mph N/A   Overcast
3:15 AM 34.2 °F 26.8 °F 31.8 °F 91% 30.09 in 10.0 mi NW 9.2 mph 20.7 mph N/A   Overcast
3:35 AM 34.3 °F 28.4 °F 31.6 °F 90% 30.09 in 10.0 mi NNW 6.9 mph 17.3 mph N/A   Overcast
3:55 AM 34.0 °F 28.0 °F 31.3 °F 90% 30.09 in 10.0 mi NNW 6.9 mph - N/A   Overcast
4:15 AM 34.0 °F 26.6 °F 31.1 °F 89% 30.10 in 10.0 mi NNW 9.2 mph - N/A   Overcast
4:35 AM 34.0 °F 28.0 °F 30.7 °F 88% 30.11 in 10.0 mi NNW 6.9 mph - N/A   Overcast
4:55 AM 34.0 °F 26.6 °F 31.1 °F 89% 30.12 in 10.0 mi NW 9.2 mph - N/A   Overcast
5:15 AM 33.8 °F 27.0 °F 31.1 °F 90% 30.13 in 10.0 mi NW 8.1 mph - N/A   Overcast
5:35 AM 34.2 °F 28.2 °F 30.9 °F 88% 30.14 in 10.0 mi NW 6.9 mph - N/A   Overcast
5:55 AM 34.2 °F 26.8 °F 31.1 °F 89% 30.14 in 10.0 mi NNW 9.2 mph - N/A   Overcast
6:15 AM 34.2 °F 27.5 °F 30.9 °F 88% 30.15 in 10.0 mi NW 8.1 mph 18.4 mph N/A   Overcast
6:35 AM 34.3 °F 27.0 °F 31.1 °F 88% 30.15 in 10.0 mi NW 9.2 mph - N/A   Overcast
6:55 AM 34.3 °F 25.9 °F 30.9 °F 87% 30.16 in 10.0 mi NW 11.5 mph 18.4 mph N/A   Overcast
7:15 AM 34.3 °F 27.0 °F 30.9 °F 87% 30.17 in 10.0 mi NW 9.2 mph - N/A   Overcast
7:35 AM 34.7 °F 26.9 °F 30.9 °F 86% 30.18 in 10.0 mi NW 10.4 mph - N/A   Overcast
7:55 AM 34.7 °F 28.8 °F 31.1 °F 87% 30.20 in 10.0 mi NNW 6.9 mph - N/A   Overcast
8:15 AM 35.1 °F 27.9 °F 31.3 °F 86% 30.21 in 10.0 mi NW 9.2 mph - N/A   Overcast
8:35 AM 35.2 °F 28.1 °F 31.1 °F 85% 30.22 in 10.0 mi NW 9.2 mph - N/A   Overcast
8:55 AM 35.6 °F 29.9 °F 30.9 °F 83% 30.23 in 10.0 mi NW 6.9 mph - N/A   Overcast
9:15 AM 36.0 °F 30.3 °F 30.9 °F 82% 30.23 in 10.0 mi NW 6.9 mph - N/A   Overcast
9:35 AM 36.1 °F 31.4 °F 31.1 °F 82% 30.23 in 10.0 mi NW 5.8 mph - N/A   Overcast
9:55 AM 36.5 °F 30.3 °F 31.1 °F 81% 30.24 in 10.0 mi NW 8.1 mph - N/A   Overcast
10:15 AM 36.5 °F 31.0 °F 31.1 °F 81% 30.24 in 10.0 mi NW 6.9 mph - N/A   Overcast
10:35 AM 36.9 °F 30.7 °F 31.1 °F 80% 30.24 in 10.0 mi NW 8.1 mph - N/A   Overcast
10:55 AM 37.4 °F 31.4 °F 31.1 °F 78% 30.25 in 10.0 mi NW 8.1 mph - N/A   Overcast
11:15 AM 38.1 °F 32.3 °F 31.6 °F 77% 30.25 in 10.0 mi WNW 8.1 mph - N/A   Overcast
11:35 AM 38.1 °F 31.7 °F 31.1 °F 76% 30.25 in 10.0 mi West 9.2 mph - N/A   Overcast
11:55 AM 38.5 °F 32.7 °F 31.8 °F 77% 30.24 in 10.0 mi WNW 8.1 mph - N/A   Overcast
12:15 PM 38.5 °F 32.7 °F 31.5 °F 76% 30.23 in 10.0 mi WNW 8.1 mph - N/A   Overcast
12:35 PM 38.8 °F 35.4 °F 31.3 °F 74% 30.23 in 10.0 mi WNW 4.6 mph - N/A   Overcast
12:55 PM 39.9 °F 35.1 °F 32.2 °F 74% 30.23 in 10.0 mi WNW 6.9 mph - N/A   Overcast
1:15 PM 39.7 °F 36.5 °F 31.8 °F 73% 30.23 in 10.0 mi WNW 4.6 mph - N/A   Overcast
1:35 PM 40.3 °F 34.9 °F 32.0 °F 72% 30.23 in 10.0 mi WNW 8.1 mph - N/A   Overcast
1:55 PM 40.5 °F 35.8 °F 32.0 °F 72% 30.23 in 10.0 mi West 6.9 mph - N/A   Overcast
2:15 PM 41.5 °F 37.8 °F 32.2 °F 69% 30.23 in 10.0 mi NW 5.8 mph - N/A   Mostly Cloudy
2:35 PM 40.8 °F 37.8 °F 32.0 °F 71% 30.23 in 10.0 mi West 4.6 mph - N/A   Mostly Cloudy
2:55 PM 41.2 °F - 31.5 °F 68% 30.23 in 10.0 mi Calm Calm - N/A   Overcast
3:15 PM 41.2 °F 39.2 °F 31.6 °F 69% 30.23 in 10.0 mi NNW 3.5 mph - N/A   Overcast
3:35 PM 41.5 °F - 32.0 °F 69% 30.23 in 10.0 mi Calm Calm - N/A   Overcast
3:55 PM 41.7 °F - 32.0 °F 68% 30.23 in 10.0 mi Calm Calm - N/A   Mostly Cloudy
4:15 PM 41.4 °F - 32.0 °F 69% 30.23 in 10.0 mi Calm Calm - N/A   Mostly Cloudy
4:35 PM 41.2 °F - 32.0 °F 70% 30.22 in 10.0 mi Calm Calm - N/A   Mostly Cloudy
4:55 PM 41.0 °F - 32.0 °F 70% 30.22 in 10.0 mi Calm Calm - N/A   Mostly Cloudy
5:15 PM 41.0 °F - 32.0 °F 70% 30.23 in 10.0 mi Calm Calm - N/A   Overcast
5:35 PM 40.6 °F - 32.2 °F 72% 30.23 in 10.0 mi Calm Calm - N/A   Overcast
5:55 PM 40.3 °F - 32.7 °F 74% 30.24 in 10.0 mi Calm Calm - N/A   Overcast
6:15 PM 40.3 °F - 32.4 °F 73% 30.25 in 10.0 mi Calm Calm - N/A   Overcast
6:35 PM 40.3 °F - 32.0 °F 72% 30.25 in 10.0 mi Calm Calm - N/A   Overcast
6:55 PM 39.4 °F 35.2 °F 32.0 °F 75% 30.26 in 10.0 mi West 5.8 mph - N/A   Scattered Clouds
7:15 PM 37.8 °F 34.2 °F 31.6 °F 79% 30.26 in 10.0 mi West 4.6 mph - N/A   Clear
7:35 PM 36.7 °F 32.9 °F 31.5 °F 81% 30.26 in 10.0 mi West 4.6 mph - N/A   Clear
7:55 PM 35.8 °F - 30.9 °F 82% 30.25 in 10.0 mi Calm Calm - N/A   Clear
8:15 PM 35.6 °F - 30.9 °F 83% 30.25 in 10.0 mi Calm Calm - N/A   Clear
8:35 PM 33.8 °F - 30.7 °F 89% 30.25 in 10.0 mi Calm Calm - N/A   Clear
8:55 PM 33.4 °F - 30.4 °F 89% 30.26 in 10.0 mi Calm Calm - N/A   Clear
9:15 PM 33.8 °F - 30.2 °F 87% 30.26 in 10.0 mi Calm Calm - N/A   Clear
9:35 PM 32.0 °F - 30.0 °F 92% 30.27 in 10.0 mi Calm Calm - N/A   Clear
9:55 PM 31.8 °F - 30.0 °F 93% 30.27 in 10.0 mi Calm Calm - N/A   Clear
10:15 PM 31.1 °F - 29.8 °F 95% 30.28 in 10.0 mi Calm Calm - N/A   Clear
10:35 PM 30.7 °F - 29.3 °F 94% 30.27 in 7.0 mi Calm Calm - N/A   Clear
10:55 PM 30.2 °F - 29.1 °F 96% 30.27 in 7.0 mi Calm Calm - N/A   Clear
11:15 PM 30.2 °F - 29.1 °F 96% 30.26 in 5.0 mi Calm Calm - N/A   Clear
11:35 PM 29.8 °F - 28.9 °F 96% 30.26 in 5.0 mi Calm Calm - N/A   Clear
11:55 PM 29.8 °F - 28.8 °F 96% 30.26 in 5.0 mi Calm Calm - N/A   Clear